Location: Paderno d�Adda
(45.6667°N, 9.4333°E)
Time: 05:28:50
(UTC+00:00)

Cosmos 1125 Rocket - Pass Details

Date: 24 January 2021
Orbit: 757 x 781 km, 74.0° (Epoch: 05 March)

Event Time Altitude Azimuth Distance (km) Brightness Sun altitude
Exits shadow 05:09:02 - 342° (NNW) 2,788 6.1 -17.9°
Reaches altitude 10° 05:10:13 10° 345° (NNW) 2,337 5.8 -17.7°
Maximum altitude 05:15:29 62° 66° (ENE) 880 4.0 -16.8°
Drops below altitude 10° 05:20:44 10° 147° (SSE) 2,329 6.6 -15.9°
Sets 05:23:08 0° 150° (SSE) 3,253 7.4 -15.5°
